Temp
7 7 6 8 9 11 12 11 11 12 12 12 13 13 13 13 13 13 14 18 17 17 17 16 16 15 14 15 15 16 12 12 15 15 18 17 16 17 18 17 18 17 17 17 16
4 5 8 10 9 10 10 11 12 11 11 11 11 12 13 12 12 14 17 17 17 16 16 16 16 15 14 14 15 12 10 13 16 16 17 18 17 18 17 16 15 16 16 16 15
2 2 3 4 8 11 10 10 11 11 11 11 11 10 10 10 10 15 18 18 18 16 15 16 15 15 14 14 15 13 14 16 16 18 18 18 17 18 16 13 17 17 17 16 15
2 2 2 2 2 5 8 10 9 10 11 10 10 9 7 7 10 17 18 19 20 17 15 14 14 13 10 12 15 13 13 15 16 18 18 16 18 15 16 19 20 20 19 17 14
1 1 1 1 1 1 1 3 7 9 9 10 10 8 6 6 9 16 17 17 17 15 13 14 13 13 10 10 13 12 14 14 16 17 18 17 15 16 15 20 20 19 17 17 16
2 1 1 1 1 1 2 4 5 7 10 9 8 6 5 6 13 15 16 15 16 16 12 13 14 14 14 12 13 14 14 15 15 16 15 14 13 15 18 20 19 18 18 17 17
1 1 1 1 1 3 3 4 6 7 8 8 8 6 3 6 12 14 14 14 15 16 15 15 14 14 15 12 14 14 14 12 11 13 13 14 12 11 17 18 18 18 17 16 16
1 1 0 0 0 3 3 4 5 7 8 8 8 4 3 7 12 10 14 14 13 13 14 16 15 14 13 14 13 12 12 12 15 11 13 15 15 14 17 17 17 17 16 15 15
1 0 0 0 0 2 2 3 4 6 7 8 6 3 6 7 8 12 14 13 14 12 12 13 13 13 13 10 10 10 13 10 14 11 12 12 14 16 17 17 14 14 14 14 14
1 0 -0 0 1 3 1 2 5 5 5 5 5 5 5 7 8 9 11 10 10 11 10 11 11 8 8 10 10 11 10 10 12 11 11 9 13 13 13 13 13 13 12 11 12
2 2 -0 -0 1 3 3 2 1 3 1 -0 1 2 3 6 7 8 8 9 10 10 9 9 9 9 11 11 12 13 11 10 11 11 11 11 13 14 12 11 10 12 12 12 12
0 1 -0 -0 1 2 2 1 0 -1 -0 1 2 3 5 7 5 7 9 8 9 9 8 7 9 11 12 11 11 11 10 10 10 11 11 11 11 13 11 12 13 12 12 13 13
-1 -1 -1 -1 1 1 1 1 1 -0 -0 1 4 3 4 6 5 7 8 8 9 9 9 10 11 11 11 11 11 11 11 11 11 11 10 10 11 10 10 11 13 13 15 16 15
0 -1 -1 -1 -0 -0 1 1 0 -0 -0 2 5 3 4 5 6 7 8 9 8 9 9 9 12 11 10 10 11 10 12 11 10 10 9 10 11 13 11 12 10 12 13 15 16
1 1 0 0 -1 -1 1 2 1 -0 -5 4 3 4 3 5 3 7 7 9 9 9 9 8 9 10 10 11 11 11 11 10 10 9 10 10 8 11 11 11 11 11 13 16 18
1 2 1 2 2 1 1 2 1 0 -3 3 4 3 4 6 5 5 5 7 10 9 9 10 9 10 11 10 11 9 9 9 8 7 6 11 10 13 14 11 12 12 14 16 16
2 2 2 1 1 1 1 1 -2 -2 2 1 1 2 3 4 5 4 4 3 4 6 7 8 8 9 11 10 9 9 9 7 6 6 9 9 8 12 12 14 14 13 15 18 16
2 2 2 2 1 1 1 -3 -4 2 1 2 2 2 2 3 3 3 3 4 5 5 6 7 7 8 9 10 8 10 11 7 9 7 9 8 8 10 11 15 16 15 16 16 17
3 3 2 1 1 1 1 -5 -2 -1 -0 0 1 2 2 1 1 2 3 3 2 2 4 6 8 10 8 10 11 9 9 12 8 6 6 8 8 10 9 10 10 11 14 13 15
2 2 2 1 1 1 -3 -1 -1 1 1 1 -1 1 -1 -1 -2 -0 2 2 1 1 0 3 6 9 10 10 10 11 12 10 8 8 10 8 9 11 13 12 11 10 10 12 14
1 -1 2 2 1 1 -5 -5 -0 1 1 -0 -2 -2 -1 -2 -1 -1 2 3 1 1 1 1 5 7 8 9 10 9 9 9 11 8 10 7 10 8 12 13 12 10 10 11 12
-1 -4 2 1 -1 -4 -3 -3 1 1 1 1 0 -1 -2 -1 -2 -2 0 1 2 1 -0 1 2 6 6 8 10 12 10 11 11 9 4 5 9 11 10 10 9 8 11 13 12
-3 -3 1 0 -4 -2 -2 -1 -0 0 -0 -1 -0 -0 -1 -1 -3 -1 -1 2 1 1 -0 0 2 4 7 8 8 9 10 12 11 9 9 9 10 9 7 9 9 8 9 9 9
-3 -3 -1 -1 -1 -3 -2 -1 -1 -0 -1 -1 -1 -2 -4 -2 -2 -3 -2 -0 1 0 2 0 2 2 5 9 7 8 10 9 11 10 12 9 10 13 11 9 9 8 7 7 7
-3 -4 -3 -4 -2 -3 -2 -2 -1 -1 -1 -1 -2 -2 -4 -3 -2 -2 -1 -1 0 1 -0 -1 -0 2 3 5 8 9 8 11 10 11 10 11 9 10 10 9 8 8 6 6 6
-2 -3 -4 -3 -2 -3 -2 -1 -1 -2 -2 -2 -3 -1 -2 -5 -3 -3 -2 -1 -1 -0 -1 -1 -0 1 2 7 7 7 8 9 10 11 10 8 8 8 9 9 7 8 6 6 6
-2 -2 -3 -3 -4 -3 -2 -1 -1 -2 -1 -1 -1 -2 -2 -1 0 -0 -1 -1 -1 -1 -0 -1 -1 2 6 5 6 6 6 8 8 4 8 8 6 9 9 9 8 8 8 8 8
Height
1498 1495 1491 1488 1484 1482 1479 1475 1472 1471 1469 1468 1468 1467 1465 1463 1461 1459 1449 1452 1459 1464 1463 1464 1467 1470 1473 1475 1475 1475 1481 1483 1470 1472 1460 1459 1463 1463 1463 1464 1464 1467 1467 1470 1471
1496 1492 1488 1484 1480 1476 1474 1471 1469 1466 1463 1461 1460 1460 1460 1457 1453 1441 1443 1448 1452 1459 1458 1458 1460 1464 1467 1467 1471 1471 1479 1467 1455 1456 1455 1454 1458 1457 1461 1462 1463 1463 1465 1468 1472
1496 1491 1486 1481 1476 1472 1468 1465 1463 1461 1459 1457 1455 1453 1452 1451 1448 1418 1436 1440 1443 1451 1453 1454 1458 1460 1462 1461 1460 1460 1461 1452 1448 1450 1451 1452 1452 1454 1454 1461 1451 1452 1458 1464 1467
1492 1487 1483 1479 1473 1468 1464 1460 1456 1453 1452 1451 1449 1448 1448 1447 1442 1421 1425 1427 1431 1438 1446 1449 1451 1453 1454 1453 1451 1455 1443 1445 1443 1445 1447 1449 1448 1449 1449 1444 1447 1450 1453 1455 1459
1493 1487 1482 1476 1470 1464 1458 1453 1450 1446 1443 1442 1442 1442 1442 1437 1416 1420 1421 1422 1424 1426 1432 1439 1440 1442 1445 1443 1445 1444 1436 1437 1436 1441 1441 1443 1444 1444 1442 1442 1445 1446 1450 1449 1451
1490 1485 1479 1473 1467 1460 1454 1447 1442 1438 1437 1435 1435 1434 1433 1416 1407 1413 1417 1418 1421 1421 1425 1435 1437 1436 1435 1434 1436 1430 1431 1429 1433 1435 1438 1440 1437 1439 1433 1439 1442 1442 1442 1444 1446
1488 1482 1475 1470 1463 1455 1448 1440 1434 1429 1426 1424 1425 1424 1417 1388 1403 1406 1405 1407 1411 1415 1416 1422 1432 1435 1434 1434 1430 1427 1432 1431 1427 1426 1430 1433 1436 1431 1428 1433 1437 1438 1437 1439 1441
1484 1479 1472 1465 1458 1450 1442 1433 1426 1419 1415 1413 1414 1414 1389 1384 1395 1398 1403 1401 1404 1408 1413 1416 1421 1428 1430 1430 1428 1429 1430 1434 1414 1424 1424 1428 1422 1414 1423 1427 1425 1425 1428 1430 1433
1481 1475 1469 1461 1453 1444 1435 1426 1418 1410 1405 1402 1403 1404 1385 1381 1383 1387 1393 1391 1399 1400 1407 1414 1416 1417 1424 1432 1436 1429 1419 1426 1416 1413 1418 1421 1416 1404 1412 1415 1415 1416 1417 1420 1427
1477 1471 1464 1456 1448 1440 1429 1418 1408 1402 1400 1397 1399 1403 1383 1380 1382 1381 1382 1388 1390 1395 1403 1406 1409 1411 1416 1421 1412 1417 1423 1416 1407 1408 1413 1421 1408 1400 1403 1406 1405 1408 1411 1416 1420
1474 1467 1459 1452 1444 1437 1426 1412 1403 1403 1403 1409 1400 1393 1379 1380 1380 1380 1380 1378 1386 1388 1389 1392 1401 1384 1378 1393 1404 1408 1415 1415 1408 1405 1410 1410 1404 1398 1402 1405 1405 1405 1407 1410 1412
1471 1463 1456 1451 1443 1435 1430 1425 1424 1423 1400 1400 1391 1384 1379 1381 1375 1372 1379 1380 1377 1370 1380 1393 1369 1361 1383 1392 1397 1404 1412 1413 1413 1407 1410 1407 1403 1399 1400 1398 1399 1401 1402 1402 1404
1467 1459 1453 1447 1439 1433 1429 1426 1423 1418 1408 1388 1371 1377 1374 1373 1364 1361 1371 1370 1368 1373 1372 1358 1335 1374 1376 1383 1392 1388 1395 1405 1411 1409 1411 1411 1402 1400 1394 1392 1393 1392 1391 1392 1392
1461 1455 1449 1443 1438 1432 1427 1424 1421 1417 1409 1384 1374 1379 1376 1366 1360 1360 1358 1365 1360 1355 1363 1365 1364 1364 1371 1372 1374 1382 1379 1395 1406 1415 1422 1414 1402 1382 1386 1382 1381 1377 1378 1378 1379
1460 1452 1447 1440 1436 1432 1427 1422 1417 1416 1439 1384 1381 1376 1374 1371 1368 1351 1349 1350 1347 1347 1357 1351 1357 1363 1365 1347 1373 1367 1379 1392 1401 1408 1414 1412 1424 1370 1378 1377 1371 1367 1366 1365 1367
1457 1449 1442 1436 1434 1432 1426 1420 1415 1417 1427 1391 1385 1379 1374 1367 1361 1355 1349 1344 1346 1348 1345 1341 1347 1354 1346 1358 1363 1372 1385 1394 1402 1412 1425 1390 1401 1366 1362 1367 1361 1358 1354 1354 1357
1455 1446 1438 1435 1434 1431 1425 1419 1425 1426 1408 1400 1389 1382 1374 1369 1362 1354 1352 1359 1360 1348 1347 1346 1346 1343 1343 1361 1366 1372 1379 1407 1417 1421 1385 1378 1392 1364 1350 1347 1346 1349 1344 1344 1349
1455 1448 1443 1438 1435 1431 1426 1425 1442 1416 1414 1407 1398 1384 1377 1378 1371 1363 1359 1354 1348 1348 1344 1341 1346 1342 1337 1341 1354 1358 1360 1379 1379 1390 1373 1380 1372 1352 1341 1339 1340 1340 1339 1340 1342
1453 1446 1444 1440 1436 1432 1428 1444 1437 1426 1419 1409 1397 1389 1384 1387 1384 1371 1363 1360 1361 1361 1358 1339 1328 1329 1331 1336 1338 1358 1361 1340 1369 1381 1386 1363 1356 1343 1338 1335 1332 1330 1332 1331 1335
1455 1446 1443 1439 1436 1432 1434 1434 1430 1423 1418 1414 1412 1402 1399 1397 1397 1390 1371 1364 1366 1371 1371 1352 1336 1321 1323 1328 1330 1331 1342 1358 1362 1372 1364 1355 1354 1342 1328 1331 1326 1325 1322 1324 1330
1455 1450 1446 1441 1435 1435 1446 1440 1428 1423 1420 1418 1417 1413 1407 1400 1396 1390 1372 1365 1373 1369 1366 1357 1339 1324 1319 1317 1322 1331 1334 1340 1339 1353 1348 1364 1341 1328 1322 1321 1323 1321 1320 1323 1327
1460 1458 1448 1442 1439 1441 1441 1436 1428 1422 1420 1417 1413 1411 1410 1403 1398 1393 1382 1377 1365 1369 1368 1362 1353 1325 1323 1315 1311 1309 1317 1323 1337 1347 1364 1358 1339 1315 1316 1319 1324 1323 1321 1322 1325
1462 1454 1448 1445 1451 1441 1437 1433 1428 1424 1421 1419 1415 1411 1408 1408 1410 1397 1385 1378 1379 1377 1380 1374 1354 1335 1318 1317 1316 1311 1314 1313 1323 1334 1339 1342 1330 1317 1318 1316 1318 1320 1321 1321 1324
1467 1462 1450 1447 1448 1446 1437 1431 1428 1424 1420 1418 1415 1412 1412 1407 1404 1401 1390 1378 1377 1375 1369 1368 1356 1348 1326 1300 1306 1308 1302 1309 1310 1321 1317 1325 1327 1316 1317 1320 1319 1319 1322 1324 1326
1470 1467 1462 1456 1446 1445 1442 1435 1428 1425 1420 1418 1415 1413 1416 1410 1399 1391 1383 1378 1373 1366 1366 1369 1354 1343 1331 1316 1304 1299 1305 1303 1310 1308 1320 1317 1327 1321 1320 1321 1321 1320 1322 1324 1327
1473 1470 1462 1455 1448 1444 1438 1431 1428 1427 1425 1420 1420 1410 1407 1412 1403 1390 1384 1380 1370 1360 1363 1369 1358 1340 1320 1300 1301 1302 1300 1305 1306 1305 1313 1320 1322 1316 1316 1317 1320 1319 1322 1322 1324
1470 1466 1462 1452 1448 1447 1440 1436 1429 1424 1419 1419 1414 1410 1403 1395 1388 1378 1372 1366 1361 1363 1369 1370 1355 1336 1299 1296 1301 1311 1310 1303 1308 1332 1319 1324 1335 1323 1321 1318 1320 1320 1319 1319 1321
Wind_Speed
19 19 19 18 18 17 16 15 14 14 15 17 20 21 22 23 27 30 41 40 31 22 14 15 19 21 19 17 16 8 1 5 9 8 12 5 4 6 13 8 15 22 8 6 28
23 22 21 21 21 21 20 20 19 19 17 16 17 20 23 25 28 43 44 40 36 28 31 27 24 23 14 13 13 7 5 11 6 9 5 8 11 13 8 10 10 18 16 12 32
26 27 27 27 26 25 25 24 24 23 22 20 19 18 18 21 25 53 41 40 40 34 36 32 26 26 13 11 13 10 16 14 8 13 14 5 5 11 9 4 19 30 32 24 35
27 27 29 30 31 31 30 27 27 26 26 25 23 19 15 13 11 7 14 24 32 32 39 35 30 20 7 10 18 6 15 16 7 16 8 6 6 7 18 20 29 34 37 35 40
29 30 32 32 33 34 35 35 33 30 28 28 26 22 10 18 35 9 8 6 14 27 42 42 34 27 11 8 9 8 10 15 26 22 20 13 11 13 14 26 21 19 31 38 41
31 32 33 34 35 35 37 40 40 38 33 31 28 24 21 27 47 37 38 32 20 18 37 39 22 28 16 8 15 9 17 16 10 18 12 9 7 11 17 26 23 27 28 38 43
31 32 34 35 39 37 40 40 39 38 38 36 29 25 31 45 26 16 17 32 36 37 28 39 42 20 9 3 21 5 5 4 7 7 8 12 9 11 29 17 25 30 33 38 44
33 33 35 37 38 41 43 43 39 34 35 36 28 21 28 26 45 47 22 21 28 32 35 33 36 29 10 5 1 6 3 12 16 11 7 16 18 11 26 27 36 37 34 40 45
34 35 36 37 39 43 46 45 43 29 30 26 20 19 16 9 35 49 41 46 30 32 33 26 37 22 11 3 3 6 14 11 11 12 5 9 14 13 21 20 27 32 38 42 47
38 38 38 38 42 44 45 48 36 13 10 3 6 10 20 7 8 18 30 41 27 31 25 20 12 8 8 12 23 10 9 6 10 7 9 7 17 9 6 19 26 27 31 37 44
40 40 40 40 41 41 46 46 30 7 27 17 33 38 54 13 22 16 11 27 33 28 15 18 13 23 33 25 8 7 10 10 3 4 7 16 20 19 11 6 11 25 30 38 46
42 41 40 39 40 34 38 19 17 16 16 28 36 40 43 46 28 40 18 19 18 21 11 6 29 28 16 21 22 20 9 11 5 3 8 8 20 17 9 13 24 26 28 39 44
41 40 38 37 38 29 34 16 22 27 10 17 31 19 20 17 32 37 23 25 19 20 22 29 33 14 21 21 24 26 27 16 5 3 3 6 10 6 8 20 23 30 38 39 38
41 39 37 36 25 33 19 25 26 24 6 7 3 9 22 26 11 18 31 25 11 26 21 21 23 25 14 26 23 26 19 14 8 3 7 6 12 13 8 16 12 23 30 42 43
43 40 37 31 28 19 21 25 30 7 4 7 4 12 25 3 16 6 34 32 20 13 15 15 10 17 23 29 17 15 11 15 8 9 3 8 3 8 5 11 11 16 28 40 47
43 42 37 23 19 19 23 27 14 1 6 10 17 18 15 7 4 10 14 12 16 6 11 28 10 18 27 12 23 9 6 5 3 4 6 20 14 22 19 7 6 10 27 38 42
46 41 16 12 13 20 28 22 4 2 14 14 20 19 17 13 9 12 8 8 6 13 14 12 12 4 6 9 6 9 10 3 1 3 14 11 11 19 11 11 13 13 24 36 33
49 24 16 16 13 23 26 5 7 10 6 16 15 22 7 13 12 17 6 8 5 14 4 16 15 13 5 10 10 24 17 6 10 8 6 4 9 6 13 20 26 28 32 27 24
49 18 20 24 18 26 8 5 2 5 7 12 17 8 7 12 10 12 6 2 8 14 6 4 26 4 10 6 15 5 17 20 6 3 3 6 5 8 10 12 10 15 20 22 21
45 19 19 29 29 19 4 2 3 3 8 7 6 7 10 12 10 10 5 4 6 10 6 5 4 15 16 6 3 14 20 5 2 6 7 5 3 5 3 9 11 10 12 17 20
32 13 18 31 18 7 1 4 5 12 13 4 4 5 6 10 13 5 6 5 8 13 15 6 5 2 6 15 15 6 10 5 5 5 7 3 6 8 9 9 9 10 8 11 15
19 4 17 27 6 1 2 3 8 7 8 4 3 2 3 10 8 5 7 8 24 10 16 4 7 8 7 4 7 20 10 16 11 12 3 3 6 4 6 4 3 9 14 13 14
18 8 19 18 3 8 4 7 7 5 5 4 4 3 3 5 5 7 6 10 21 15 5 7 3 5 5 3 5 7 6 16 9 2 10 9 7 2 4 5 3 5 9 13 16
8 5 8 8 5 4 11 5 6 9 7 5 5 2 4 12 5 7 18 9 16 18 22 8 5 9 9 12 4 13 20 12 20 15 18 11 5 3 6 7 6 1 7 14 17
4 3 3 5 8 14 11 7 13 5 3 4 5 4 3 7 15 8 14 20 14 11 2 5 8 8 14 24 10 7 7 21 14 20 14 14 9 8 7 5 6 4 11 17 19
8 5 6 8 14 8 8 2 11 5 1 8 2 16 12 6 12 22 17 16 14 8 1 1 6 9 18 14 8 5 12 12 18 18 9 5 5 7 4 1 2 7 12 18 23
18 17 5 7 5 5 5 12 10 7 8 5 13 11 14 16 21 31 34 32 22 18 13 6 4 4 5 13 6 2 3 14 6 15 5 3 10 10 4 4 4 9 17 21 24
Wind_Direction
342 337 332 323 314 305 296 291 285 278 275 275 273 268 262 260 260 257 250 243 242 225 219 227 213 204 206 205 202 204 275 224 230 187 233 142 179 204 209 172 183 193 207 214 195
346 339 328 321 316 305 296 291 282 279 271 265 265 268 268 264 261 258 249 250 246 241 230 222 207 198 197 205 193 168 194 227 211 211 228 209 191 192 168 179 209 207 206 205 186
349 345 341 333 324 315 308 298 287 279 273 271 266 266 271 265 274 263 259 253 252 241 235 229 222 193 200 195 197 196 218 222 236 227 222 218 227 203 164 224 208 205 204 197 189
348 345 342 339 334 327 319 306 300 289 276 270 270 270 281 245 230 252 235 242 240 227 228 218 206 190 190 203 202 215 234 214 196 223 203 206 205 187 199 211 218 224 215 201 192
347 343 340 337 334 331 325 319 308 293 287 272 262 265 273 230 238 195 192 211 219 216 215 213 195 196 187 196 183 227 222 217 232 234 243 243 214 226 225 237 231 224 211 205 203
344 341 337 334 332 329 325 320 309 298 286 283 277 268 241 242 246 254 247 247 248 218 208 214 217 210 207 199 189 226 231 242 218 229 223 195 236 197 238 235 233 237 220 213 210
341 339 337 336 333 333 332 321 310 299 294 286 277 265 252 241 248 255 242 237 235 232 206 213 217 204 235 273 230 220 258 285 235 218 225 205 260 216 235 218 228 227 220 215 215
342 339 337 337 333 340 334 327 318 305 290 280 272 253 251 261 254 247 237 235 226 234 232 227 212 216 209 263 301 169 152 244 248 164 224 159 257 240 230 228 235 232 222 219 217
337 337 335 335 331 338 333 329 327 313 303 279 253 213 260 278 242 254 246 230 226 218 218 217 213 208 201 159 329 240 228 209 248 198 148 176 249 259 228 219 230 230 226 223 220
337 337 335 333 332 338 333 337 338 313 347 342 208 198 251 258 266 316 259 235 218 206 203 200 185 175 189 183 218 220 226 217 216 203 196 192 244 246 196 204 227 231 224 217 218
337 336 334 335 333 337 339 348 9 348 332 297 288 286 292 275 292 305 321 218 207 181 188 180 195 206 203 206 223 263 227 262 326 189 143 214 232 240 232 219 239 234 230 224 225
333 333 332 335 334 332 340 356 351 314 302 299 285 282 276 280 279 275 275 196 200 206 156 161 216 212 193 201 211 227 239 237 313 202 186 224 240 241 222 232 227 231 226 226 229
333 331 332 331 333 335 335 340 337 329 291 284 270 261 278 297 248 254 241 210 205 213 205 206 220 178 191 187 202 217 220 220 199 41 298 1 271 207 232 237 233 231 240 241 230
337 336 334 335 337 327 346 344 330 326 300 277 335 29 358 334 255 270 267 216 215 210 203 230 226 198 191 208 195 218 210 210 190 138 238 152 276 248 203 235 216 229 228 237 239
350 346 341 339 322 326 343 344 330 318 349 321 0 322 319 303 267 356 327 216 219 189 183 214 196 205 207 218 198 229 154 196 181 203 102 228 262 267 189 224 226 230 232 238 240
351 346 342 349 354 354 345 339 333 266 264 324 333 326 348 15 272 305 14 337 223 217 223 212 192 191 216 197 202 125 89 77 82 121 242 235 214 261 244 212 237 237 237 237 239
352 351 0 6 356 347 343 335 24 7 343 332 328 335 320 350 1 1 359 334 286 218 211 217 228 266 133 170 153 174 147 147 151 172 238 196 214 236 253 234 227 218 238 241 238
356 5 21 4 350 345 344 36 56 337 316 309 314 316 6 18 337 339 324 330 336 245 225 221 226 207 200 198 174 195 180 166 193 193 215 157 222 237 216 233 242 235 245 249 239
355 9 3 5 336 341 352 43 272 326 309 319 323 340 341 1 347 353 310 303 46 26 312 269 237 221 168 171 163 195 210 209 91 35 93 223 291 286 221 246 249 247 247 249 239
351 354 6 354 341 336 61 278 265 276 317 325 327 353 325 349 347 334 287 80 19 30 342 281 269 220 205 135 217 166 199 205 205 159 219 253 224 220 159 240 260 269 244 253 251
352 350 354 353 355 16 93 245 278 312 326 328 299 311 327 328 323 309 313 1 25 2 341 280 260 319 143 201 196 176 184 185 195 179 207 249 243 209 219 212 242 274 294 263 241
344 335 338 352 39 33 313 258 308 303 311 286 290 283 296 327 323 319 315 316 3 352 334 321 301 231 207 287 221 215 190 188 204 228 270 182 246 194 200 207 230 280 271 249 216
332 286 345 354 29 336 292 287 272 296 297 312 287 258 311 312 326 296 305 310 319 336 341 324 328 307 187 5 318 199 174 194 199 122 210 213 241 303 252 264 220 266 257 211 189
328 318 326 344 345 322 316 332 308 309 283 243 272 337 346 317 256 281 291 301 329 307 305 285 248 229 276 217 132 200 201 193 197 218 223 231 258 288 277 263 294 338 200 182 180
315 285 310 306 326 311 303 294 300 314 287 326 308 251 253 298 308 283 300 301 311 314 96 4 264 274 271 264 237 190 194 209 200 213 214 226 204 230 235 251 253 239 174 171 178
328 288 289 274 299 311 304 299 301 306 278 308 243 306 308 238 274 291 293 297 284 293 64 168 274 304 295 220 188 158 197 197 221 229 231 141 234 238 282 213 183 186 190 188 195
338 312 275 275 311 314 312 325 305 326 284 252 293 302 303 295 296 283 279 273 261 267 265 245 253 300 281 155 121 77 278 184 163 32 300 314 358 336 346 307 252 232 211 206 209